QPF
0.06 0.05 0.04 0.04 0.03 0.03 0.05 0.05 0.05 0.05 0.03 0.02 0.01 0.02 0.02 0.02 0.02 0.02 0.02 0.02 0.03 0.04 0.06 0.06 0.06 0.07 0.06 0.06 0.06 0.04 0.04 0.04 0.04 0.04 0.04 0.05 0.05 0.04 0.05 0.06 0.04 0.03 0.03
0.05 0.03 0.02 0.02 0.02 0.02 0.03 0.03 0.04 0.05 0.04 0.02 0.01 0.02 0.02 0.02 0.02 0.02 0.02 0.02 0.02 0.03 0.04 0.04 0.04 0.05 0.06 0.06 0.04 0.02 0.02 0.02 0.03 0.03 0.04 0.05 0.04 0.04 0.05 0.05 0.04 0.04 0.04
0.04 0.02 0.01 0.01 0.01 0.01 0.01 0.02 0.03 0.03 0.03 0.04 0.02 0.01 0.01 0.01 0.01 0.01 0.01 0.02 0.01 0.01 0.02 0.02 0.03 0.05 0.05 0.04 0.03 0.02 0.02 0.01 0.02 0.02 0.03 0.03 0.03 0.04 0.04 0.04 0.04 0.05 0.05
0.03 0.02 0.01 0.01 0.01 0.00 0.01 0.02 0.02 0.02 0.02 0.03 0.02 0.01 0.01 0.01 0.01 0.01 0.01 0.01 0.01 0.01 0.00 0.01 0.02 0.05 0.03 0.03 0.03 0.02 0.01 0.01 0.01 0.01 0.01 0.01 0.02 0.03 0.04 0.04 0.04 0.06 0.06
0.03 0.03 0.02 0.01 0.01 0.01 0.02 0.03 0.04 0.03 0.03 0.02 0.01 0.01 0.01 0.01 0.01 0.01 0.01 0.00 0.00 0.01 0.00 0.01 0.02 0.03 0.02 0.02 0.02 0.02 0.02 0.02 0.01 0.01 0.01 0.01 0.02 0.03 0.04 0.04 0.04 0.05 0.05
0.03 0.02 0.02 0.01 0.01 0.02 0.04 0.03 0.03 0.03 0.03 0.02 0.01 0.01 0.01 0.01 0.01 0.01 0.01 0.00 0.00 0.01 0.01 0.01 0.02 0.02 0.02 0.01 0.01 0.02 0.02 0.02 0.02 0.02 0.02 0.02 0.02 0.03 0.04 0.04 0.05 0.04 0.04
0.02 0.02 0.02 0.02 0.02 0.03 0.04 0.04 0.04 0.04 0.03 0.03 0.02 0.03 0.02 0.01 0.01 0.00 0.00 0.00 0.00 0.01 0.01 0.01 0.01 0.02 0.02 0.01 0.01 0.02 0.02 0.02 0.02 0.02 0.02 0.02 0.03 0.03 0.04 0.05 0.05 0.05 0.05
0.01 0.02 0.02 0.02 0.03 0.04 0.04 0.04 0.05 0.06 0.04 0.04 0.04 0.04 0.04 0.03 0.02 0.00 0.00 0.01 0.01 0.01 0.01 0.01 0.01 0.01 0.01 0.01 0.01 0.02 0.02 0.03 0.02 0.02 0.03 0.03 0.03 0.03 0.05 0.07 0.06 0.07 0.08
0.01 0.01 0.01 0.02 0.02 0.04 0.04 0.05 0.06 0.07 0.07 0.04 0.04 0.05 0.05 0.04 0.04 0.02 0.02 0.01 0.01 0.01 0.01 0.01 0.01 0.01 0.01 0.01 0.02 0.02 0.02 0.05 0.04 0.04 0.05 0.06 0.04 0.04 0.05 0.06 0.06 0.07 0.09
0.02 0.01 0.01 0.01 0.02 0.03 0.03 0.03 0.04 0.06 0.08 0.06 0.05 0.05 0.04 0.03 0.04 0.04 0.04 0.02 0.01 0.01 0.01 0.01 0.01 0.01 0.01 0.01 0.02 0.02 0.01 0.03 0.05 0.06 0.08 0.08 0.08 0.08 0.05 0.04 0.05 0.06 0.07
0.02 0.02 0.01 0.01 0.02 0.02 0.02 0.01 0.02 0.03 0.06 0.08 0.07 0.06 0.05 0.04 0.03 0.03 0.05 0.05 0.02 0.01 0.01 0.01 0.00 0.01 0.01 0.01 0.03 0.03 0.01 0.02 0.05 0.07 0.09 0.08 0.08 0.09 0.07 0.05 0.06 0.05 0.06
0.02 0.03 0.02 0.03 0.03 0.03 0.04 0.03 0.03 0.02 0.03 0.06 0.07 0.05 0.06 0.05 0.04 0.04 0.04 0.05 0.04 0.03 0.01 0.01 0.01 0.00 0.01 0.02 0.03 0.04 0.03 0.03 0.06 0.07 0.09 0.09 0.07 0.08 0.07 0.06 0.06 0.06 0.06
0.02 0.02 0.03 0.04 0.06 0.07 0.08 0.06 0.04 0.02 0.01 0.03 0.05 0.06 0.06 0.04 0.03 0.03 0.03 0.03 0.04 0.03 0.02 0.01 0.01 0.00 0.01 0.02 0.04 0.05 0.04 0.04 0.05 0.04 0.06 0.07 0.07 0.07 0.07 0.05 0.05 0.06 0.06
0.01 0.01 0.02 0.03 0.04 0.05 0.06 0.06 0.06 0.03 0.02 0.02 0.04 0.05 0.04 0.04 0.02 0.02 0.02 0.02 0.03 0.04 0.04 0.02 0.01 0.01 0.01 0.01 0.04 0.05 0.04 0.04 0.03 0.03 0.06 0.09 0.08 0.08 0.07 0.06 0.05 0.06 0.06
0.01 0.01 0.01 0.02 0.02 0.04 0.04 0.05 0.05 0.04 0.03 0.03 0.04 0.03 0.03 0.02 0.02 0.02 0.02 0.03 0.03 0.04 0.05 0.03 0.02 0.02 0.01 0.02 0.03 0.03 0.03 0.04 0.03 0.03 0.05 0.08 0.08 0.07 0.06 0.06 0.06 0.06 0.04
0.02 0.02 0.02 0.02 0.03 0.02 0.02 0.02 0.03 0.04 0.05 0.05 0.04 0.04 0.03 0.02 0.02 0.02 0.02 0.02 0.02 0.04 0.04 0.03 0.02 0.04 0.04 0.03 0.03 0.02 0.02 0.03 0.03 0.03 0.05 0.07 0.07 0.07 0.07 0.05 0.04 0.03 0.02
0.01 0.02 0.01 0.02 0.02 0.01 0.01 0.02 0.02 0.03 0.05 0.05 0.05 0.05 0.03 0.01 0.02 0.02 0.02 0.03 0.02 0.03 0.04 0.03 0.02 0.02 0.05 0.06 0.03 0.02 0.02 0.02 0.02 0.03 0.04 0.05 0.06 0.08 0.06 0.03 0.02 0.02 0.02
0.01 0.01 0.01 0.02 0.01 0.01 0.01 0.01 0.02 0.02 0.04 0.05 0.04 0.04 0.02 0.01 0.01 0.01 0.03 0.03 0.02 0.01 0.02 0.02 0.02 0.02 0.03 0.05 0.07 0.03 0.02 0.01 0.02 0.02 0.03 0.03 0.05 0.07 0.06 0.04 0.04 0.03 0.03
0.01 0.01 0.02 0.02 0.01 0.01 0.01 0.01 0.01 0.02 0.02 0.02 0.02 0.02 0.01 0.01 0.01 0.01 0.02 0.02 0.01 0.01 0.01 0.01 0.01 0.02 0.02 0.03 0.05 0.05 0.02 0.02 0.02 0.02 0.03 0.03 0.05 0.06 0.07 0.07 0.08 0.05 0.03
0.02 0.02 0.02 0.02 0.01 0.01 0.01 0.02 0.02 0.01 0.01 0.01 0.01 0.01 0.01 0.01 0.01 0.01 0.02 0.02 0.01 0.01 0.01 0.01 0.01 0.01 0.01 0.03 0.03 0.04 0.04 0.03 0.04 0.03 0.02 0.02 0.04 0.05 0.05 0.06 0.07 0.06 0.05
0.01 0.01 0.01 0.01 0.01 0.01 0.01 0.02 0.02 0.02 0.01 0.01 0.01 0.01 0.01 0.03 0.04 0.02 0.02 0.03 0.02 0.01 0.01 0.01 0.01 0.01 0.01 0.02 0.04 0.04 0.05 0.05 0.05 0.04 0.02 0.03 0.02 0.02 0.03 0.04 0.05 0.04 0.04
0.02 0.02 0.01 0.01 0.01 0.01 0.02 0.03 0.02 0.02 0.02 0.02 0.01 0.01 0.03 0.03 0.03 0.02 0.02 0.02 0.02 0.01 0.00 0.01 0.01 0.01 0.02 0.01 0.02 0.04 0.04 0.06 0.06 0.06 0.03 0.03 0.02 0.02 0.02 0.02 0.02 0.02 0.03
0.03 0.03 0.03 0.02 0.01 0.02 0.03 0.03 0.02 0.03 0.03 0.03 0.03 0.02 0.02 0.02 0.02 0.01 0.01 0.01 0.01 0.01 0.00 0.00 0.00 0.01 0.01 0.01 0.02 0.03 0.05 0.04 0.05 0.05 0.03 0.03 0.02 0.02 0.02 0.02 0.02 0.02 0.02
0.03 0.03 0.03 0.02 0.02 0.03 0.03 0.02 0.02 0.02 0.02 0.03 0.03 0.02 0.02 0.03 0.02 0.01 0.01 0.01 0.00 0.00 0.00 0.00 0.00 0.00 0.00 0.01 0.01 0.04 0.05 0.04 0.05 0.03 0.02 0.03 0.02 0.02 0.01 0.02 0.02 0.01 0.02
0.02 0.03 0.03 0.03 0.02 0.02 0.03 0.02 0.02 0.02 0.02 0.03 0.03 0.02 0.04 0.04 0.03 0.02 0.02 0.02 0.01 0.01 0.00 0.00 0.00 0.00 0.00 0.01 0.01 0.04 0.04 0.04 0.04 0.02 0.02 0.02 0.02 0.02 0.01 0.02 0.02 0.02 0.02
0.02 0.03 0.03 0.03 0.01 0.02 0.02 0.02 0.02 0.02 0.03 0.04 0.04 0.04 0.06 0.06 0.06 0.05 0.03 0.03 0.03 0.02 0.01 0.01 0.00 0.00 0.00 0.01 0.01 0.03 0.04 0.02 0.02 0.02 0.01 0.01 0.01 0.01 0.01 0.01 0.01 0.01 0.01
MSLP
1013.54 1013.59 1013.62 1013.64 1013.69 1013.77 1013.89 1014.06 1014.25 1014.44 1014.62 1014.77 1014.89 1015.00 1015.11 1015.25 1015.42 1015.61 1015.80 1015.97 1016.06 1016.07 1015.96 1015.75 1015.46 1015.14 1014.83 1014.57 1014.38 1014.30 1014.30 1014.39 1014.54 1014.74 1014.96 1015.20 1015.46 1015.73 1015.99 1016.25 1016.48 1016.67 1016.81
1013.81 1013.86 1013.90 1013.95 1014.01 1014.10 1014.23 1014.38 1014.55 1014.72 1014.87 1014.99 1015.10 1015.19 1015.30 1015.42 1015.57 1015.74 1015.91 1016.05 1016.14 1016.14 1016.06 1015.90 1015.68 1015.43 1015.19 1014.99 1014.85 1014.77 1014.77 1014.83 1014.94 1015.09 1015.26 1015.45 1015.67 1015.89 1016.13 1016.35 1016.55 1016.72 1016.83
1014.08 1014.13 1014.19 1014.26 1014.34 1014.46 1014.59 1014.75 1014.90 1015.05 1015.18 1015.28 1015.36 1015.44 1015.52 1015.61 1015.72 1015.84 1015.96 1016.06 1016.12 1016.13 1016.08 1015.98 1015.84 1015.69 1015.55 1015.43 1015.35 1015.32 1015.32 1015.35 1015.42 1015.50 1015.61 1015.75 1015.90 1016.08 1016.27 1016.46 1016.63 1016.76 1016.84
1014.33 1014.39 1014.47 1014.56 1014.67 1014.81 1014.96 1015.12 1015.27 1015.41 1015.52 1015.61 1015.67 1015.72 1015.76 1015.81 1015.86 1015.92 1015.97 1016.02 1016.04 1016.04 1016.02 1015.98 1015.94 1015.90 1015.87 1015.85 1015.85 1015.85 1015.86 1015.88 1015.89 1015.91 1015.95 1016.02 1016.12 1016.24 1016.38 1016.52 1016.65 1016.73 1016.77
1014.56 1014.63 1014.72 1014.83 1014.97 1015.13 1015.30 1015.47 1015.63 1015.77 1015.87 1015.95 1015.99 1016.02 1016.03 1016.02 1016.02 1016.00 1015.98 1015.96 1015.95 1015.94 1015.94 1015.96 1016.00 1016.06 1016.14 1016.22 1016.29 1016.33 1016.35 1016.34 1016.30 1016.26 1016.24 1016.24 1016.27 1016.33 1016.42 1016.52 1016.59 1016.63 1016.62
1014.78 1014.84 1014.93 1015.06 1015.22 1015.40 1015.58 1015.76 1015.93 1016.07 1016.18 1016.26 1016.30 1016.32 1016.30 1016.26 1016.20 1016.12 1016.04 1015.97 1015.91 1015.88 1015.90 1015.97 1016.08 1016.22 1016.39 1016.54 1016.66 1016.74 1016.75 1016.72 1016.64 1016.54 1016.45 1016.39 1016.36 1016.37 1016.41 1016.45 1016.48 1016.47 1016.41
1014.97 1015.01 1015.10 1015.23 1015.39 1015.58 1015.77 1015.97 1016.14 1016.29 1016.42 1016.51 1016.57 1016.59 1016.57 1016.52 1016.43 1016.32 1016.19 1016.07 1015.98 1015.94 1015.97 1016.06 1016.22 1016.42 1016.64 1016.84 1017.00 1017.09 1017.10 1017.03 1016.91 1016.76 1016.62 1016.50 1016.42 1016.39 1016.37 1016.37 1016.35 1016.29 1016.19
1015.14 1015.16 1015.23 1015.34 1015.50 1015.68 1015.87 1016.06 1016.25 1016.42 1016.56 1016.68 1016.77 1016.82 1016.83 1016.79 1016.70 1016.58 1016.44 1016.30 1016.19 1016.14 1016.17 1016.28 1016.46 1016.69 1016.93 1017.16 1017.32 1017.41 1017.40 1017.32 1017.16 1016.98 1016.80 1016.64 1016.53 1016.45 1016.39 1016.34 1016.28 1016.18 1016.04
1015.29 1015.29 1015.33 1015.41 1015.54 1015.70 1015.88 1016.07 1016.25 1016.43 1016.60 1016.75 1016.89 1016.99 1017.04 1017.04 1016.99 1016.89 1016.76 1016.63 1016.52 1016.47 1016.50 1016.61 1016.80 1017.03 1017.28 1017.50 1017.66 1017.74 1017.72 1017.61 1017.44 1017.24 1017.04 1016.87 1016.73 1016.62 1016.53 1016.44 1016.34 1016.20 1016.02
1015.44 1015.40 1015.40 1015.46 1015.56 1015.69 1015.84 1016.00 1016.18 1016.36 1016.55 1016.74 1016.92 1017.07 1017.18 1017.25 1017.25 1017.20 1017.11 1017.00 1016.92 1016.88 1016.91 1017.01 1017.19 1017.42 1017.65 1017.86 1018.01 1018.08 1018.05 1017.95 1017.78 1017.58 1017.39 1017.21 1017.06 1016.94 1016.83 1016.71 1016.57 1016.39 1016.19
1015.56 1015.50 1015.48 1015.50 1015.56 1015.65 1015.77 1015.90 1016.06 1016.24 1016.43 1016.65 1016.86 1017.07 1017.24 1017.37 1017.44 1017.44 1017.41 1017.35 1017.29 1017.27 1017.31 1017.42 1017.58 1017.79 1018.01 1018.21 1018.35 1018.41 1018.40 1018.31 1018.16 1017.99 1017.82 1017.66 1017.53 1017.40 1017.28 1017.14 1016.97 1016.76 1016.53
1015.66 1015.59 1015.55 1015.55 1015.57 1015.63 1015.70 1015.80 1015.93 1016.09 1016.28 1016.51 1016.75 1016.99 1017.21 1017.39 1017.52 1017.59 1017.61 1017.60 1017.58 1017.58 1017.64 1017.74 1017.90 1018.10 1018.30 1018.49 1018.63 1018.71 1018.71 1018.66 1018.56 1018.43 1018.30 1018.18 1018.06 1017.95 1017.82 1017.67 1017.48 1017.26 1017.01
1015.72 1015.66 1015.61 1015.60 1015.60 1015.62 1015.66 1015.73 1015.83 1015.96 1016.13 1016.35 1016.59 1016.85 1017.10 1017.32 1017.49 1017.61 1017.68 1017.71 1017.73 1017.77 1017.83 1017.94 1018.10 1018.29 1018.49 1018.67 1018.82 1018.92 1018.97 1018.96 1018.91 1018.84 1018.76 1018.68 1018.59 1018.50 1018.38 1018.23 1018.03 1017.80 1017.55
1015.72 1015.68 1015.65 1015.64 1015.63 1015.64 1015.66 1015.70 1015.76 1015.87 1016.02 1016.21 1016.44 1016.70 1016.95 1017.19 1017.39 1017.54 1017.65 1017.72 1017.77 1017.83 1017.91 1018.02 1018.18 1018.36 1018.56 1018.75 1018.91 1019.04 1019.12 1019.16 1019.17 1019.15 1019.12 1019.08 1019.03 1018.96 1018.86 1018.72 1018.54 1018.32 1018.07
1015.66 1015.65 1015.65 1015.66 1015.66 1015.67 1015.69 1015.71 1015.76 1015.84 1015.96 1016.13 1016.34 1016.57 1016.82 1017.06 1017.27 1017.43 1017.56 1017.65 1017.73 1017.81 1017.90 1018.02 1018.17 1018.35 1018.54 1018.74 1018.91 1019.06 1019.18 1019.26 1019.30 1019.33 1019.34 1019.34 1019.32 1019.27 1019.19 1019.08 1018.92 1018.73 1018.51
1015.53 1015.57 1015.60 1015.64 1015.68 1015.70 1015.73 1015.76 1015.81 1015.88 1015.98 1016.13 1016.32 1016.53 1016.76 1016.98 1017.18 1017.36 1017.50 1017.60 1017.69 1017.78 1017.88 1018.00 1018.15 1018.33 1018.51 1018.70 1018.88 1019.04 1019.16 1019.26 1019.33 1019.38 1019.41 1019.42 1019.42 1019.40 1019.35 1019.26 1019.15 1019.00 1018.82
1015.36 1015.43 1015.51 1015.59 1015.66 1015.73 1015.79 1015.84 1015.90 1015.98 1016.08 1016.22 1016.39 1016.59 1016.80 1017.01 1017.21 1017.38 1017.52 1017.64 1017.74 1017.84 1017.94 1018.06 1018.21 1018.37 1018.54 1018.71 1018.88 1019.02 1019.14 1019.22 1019.29 1019.33 1019.36 1019.37 1019.38 1019.37 1019.34 1019.29 1019.22 1019.12 1018.99
1015.17 1015.27 1015.38 1015.50 1015.62 1015.74 1015.84 1015.93 1016.02 1016.12 1016.24 1016.38 1016.55 1016.74 1016.95 1017.15 1017.35 1017.52 1017.67 1017.80 1017.92 1018.02 1018.13 1018.25 1018.38 1018.52 1018.68 1018.82 1018.96 1019.07 1019.16 1019.22 1019.25 1019.26 1019.27 1019.26 1019.25 1019.24 1019.23 1019.21 1019.17 1019.12 1019.05
1015.00 1015.11 1015.25 1015.41 1015.57 1015.73 1015.88 1016.02 1016.15 1016.29 1016.43 1016.59 1016.77 1016.97 1017.18 1017.39 1017.59 1017.78 1017.94 1018.09 1018.21 1018.33 1018.44 1018.56 1018.69 1018.82 1018.95 1019.07 1019.16 1019.24 1019.28 1019.29 1019.28 1019.24 1019.20 1019.16 1019.13 1019.11 1019.09 1019.08 1019.08 1019.06 1019.02
1014.89 1015.00 1015.15 1015.33 1015.53 1015.72 1015.92 1016.10 1016.27 1016.43 1016.61 1016.79 1016.99 1017.20 1017.43 1017.66 1017.88 1018.09 1018.27 1018.44 1018.59 1018.72 1018.85 1018.97 1019.10 1019.22 1019.33 1019.42 1019.48 1019.52 1019.51 1019.48 1019.41 1019.32 1019.23 1019.14 1019.07 1019.02 1018.99 1018.98 1018.98 1018.97 1018.95
1014.86 1014.96 1015.11 1015.29 1015.50 1015.72 1015.94 1016.15 1016.34 1016.53 1016.73 1016.94 1017.16 1017.39 1017.64 1017.90 1018.15 1018.38 1018.60 1018.79 1018.97 1019.13 1019.27 1019.41 1019.54 1019.66 1019.76 1019.83 1019.88 1019.88 1019.84 1019.76 1019.64 1019.51 1019.37 1019.24 1019.12 1019.04 1018.98 1018.95 1018.93 1018.91 1018.87
1014.92 1014.99 1015.13 1015.31 1015.51 1015.73 1015.95 1016.17 1016.37 1016.57 1016.78 1017.00 1017.24 1017.49 1017.77 1018.05 1018.33 1018.60 1018.85 1019.08 1019.28 1019.47 1019.64 1019.79 1019.93 1020.06 1020.17 1020.24 1020.27 1020.26 1020.20 1020.10 1019.95 1019.78 1019.61 1019.43 1019.29 1019.16 1019.07 1019.00 1018.95 1018.88 1018.80
1015.07 1015.11 1015.22 1015.38 1015.57 1015.77 1015.97 1016.16 1016.35 1016.54 1016.75 1016.97 1017.21 1017.49 1017.78 1018.09 1018.40 1018.70 1018.98 1019.24 1019.48 1019.69 1019.88 1020.06 1020.22 1020.36 1020.48 1020.56 1020.61 1020.60 1020.54 1020.43 1020.28 1020.09 1019.90 1019.71 1019.53 1019.38 1019.25 1019.14 1019.03 1018.91 1018.77
1015.27 1015.29 1015.38 1015.51 1015.66 1015.82 1015.98 1016.14 1016.30 1016.46 1016.64 1016.86 1017.10 1017.39 1017.70 1018.03 1018.36 1018.69 1019.00 1019.28 1019.54 1019.77 1019.98 1020.17 1020.35 1020.51 1020.64 1020.75 1020.81 1020.83 1020.79 1020.69 1020.55 1020.38 1020.19 1019.99 1019.81 1019.63 1019.48 1019.33 1019.18 1019.00 1018.79
1015.51 1015.51 1015.57 1015.67 1015.78 1015.90 1016.01 1016.12 1016.23 1016.36 1016.51 1016.71 1016.95 1017.23 1017.56 1017.90 1018.26 1018.61 1018.93 1019.23 1019.50 1019.74 1019.95 1020.15 1020.34 1020.51 1020.66 1020.78 1020.87 1020.92 1020.91 1020.85 1020.74 1020.59 1020.42 1020.24 1020.07 1019.89 1019.72 1019.55 1019.36 1019.14 1018.87
1015.74 1015.74 1015.78 1015.84 1015.91 1015.98 1016.05 1016.11 1016.17 1016.26 1016.39 1016.56 1016.80 1017.08 1017.41 1017.77 1018.14 1018.50 1018.83 1019.13 1019.40 1019.63 1019.84 1020.03 1020.21 1020.39 1020.55 1020.69 1020.80 1020.87 1020.90 1020.87 1020.80 1020.70 1020.57 1020.42 1020.27 1020.11 1019.95 1019.77 1019.56 1019.31 1019.01
Thickness
5737 5736 5734 5733 5731 5731 5730 5729 5729 5729 5729 5729 5728 5727 5725 5724 5723 5721 5720 5721 5721 5721 5720 5721 5721 5721 5721 5721 5722 5722 5722 5721 5722 5722 5722 5722 5722 5722 5722 5723 5723 5724 5725
5736 5734 5731 5730 5729 5728 5727 5726 5725 5724 5723 5723 5722 5722 5721 5720 5719 5718 5717 5716 5716 5716 5716 5716 5716 5716 5716 5716 5717 5717 5717 5717 5717 5717 5717 5717 5718 5718 5718 5719 5719 5720 5721
5733 5731 5728 5727 5726 5725 5724 5722 5721 5720 5719 5718 5717 5717 5717 5717 5716 5715 5714 5713 5712 5711 5711 5711 5711 5711 5711 5711 5712 5712 5712 5712 5712 5713 5713 5713 5713 5714 5714 5714 5715 5716 5716
5730 5728 5725 5724 5723 5722 5720 5718 5716 5714 5713 5712 5711 5712 5712 5712 5712 5712 5711 5710 5709 5707 5707 5707 5707 5706 5706 5707 5707 5707 5707 5708 5708 5708 5708 5708 5709 5709 5709 5710 5710 5711 5712
5727 5724 5722 5721 5720 5718 5716 5714 5712 5710 5708 5707 5707 5707 5708 5708 5708 5708 5707 5707 5706 5705 5703 5702 5702 5702 5702 5702 5702 5702 5703 5703 5704 5704 5704 5704 5704 5705 5705 5705 5706 5707 5708
5723 5721 5719 5717 5715 5713 5711 5709 5707 5706 5705 5704 5705 5703 5703 5704 5704 5703 5703 5703 5702 5701 5700 5699 5699 5698 5698 5698 5698 5698 5698 5698 5699 5699 5699 5700 5699 5700 5700 5701 5701 5702 5703
5719 5717 5715 5713 5711 5708 5706 5705 5703 5701 5700 5701 5698 5695 5697 5699 5699 5700 5700 5699 5699 5698 5697 5697 5696 5695 5694 5694 5693 5693 5693 5694 5694 5695 5695 5695 5695 5695 5695 5696 5697 5697 5698
5715 5714 5711 5709 5707 5704 5702 5701 5699 5696 5695 5696 5692 5688 5684 5686 5691 5695 5695 5694 5695 5695 5694 5694 5693 5692 5691 5690 5689 5689 5689 5690 5690 5691 5691 5691 5690 5691 5691 5691 5692 5693 5693
5711 5709 5708 5705 5703 5701 5698 5696 5695 5692 5688 5690 5691 5686 5679 5676 5680 5685 5689 5690 5690 5690 5690 5690 5690 5689 5688 5687 5686 5686 5685 5686 5687 5687 5687 5686 5686 5686 5687 5687 5688 5688 5688
5707 5705 5703 5701 5699 5697 5695 5693 5692 5690 5687 5684 5685 5686 5685 5683 5676 5674 5680 5684 5686 5686 5686 5686 5686 5685 5684 5683 5682 5682 5682 5682 5682 5683 5682 5682 5682 5682 5682 5683 5683 5683 5683
5703 5701 5699 5697 5696 5694 5692 5690 5688 5686 5684 5682 5680 5680 5680 5680 5680 5673 5670 5674 5678 5680 5682 5682 5682 5681 5680 5680 5678 5678 5678 5678 5678 5678 5677 5677 5677 5678 5678 5678 5678 5678 5679
5698 5697 5696 5694 5692 5691 5689 5687 5685 5683 5682 5681 5679 5678 5676 5674 5673 5673 5669 5668 5669 5674 5677 5678 5678 5677 5676 5675 5674 5674 5674 5673 5673 5673 5672 5671 5672 5673 5674 5674 5673 5673 5674
5693 5693 5692 5690 5689 5687 5686 5684 5682 5680 5679 5678 5677 5676 5675 5674 5674 5672 5669 5666 5665 5669 5671 5672 5673 5673 5673 5671 5670 5669 5669 5668 5668 5667 5667 5666 5666 5667 5668 5670 5670 5669 5669
5691 5691 5689 5688 5686 5684 5683 5681 5678 5677 5676 5674 5674 5673 5672 5672 5672 5671 5667 5664 5660 5661 5663 5665 5667 5668 5668 5666 5665 5665 5664 5663 5663 5662 5661 5661 5661 5661 5662 5665 5666 5665 5665
5688 5687 5685 5684 5682 5681 5679 5677 5674 5673 5672 5671 5670 5670 5669 5669 5669 5668 5667 5664 5658 5653 5654 5658 5659 5661 5662 5662 5661 5660 5659 5658 5658 5657 5656 5656 5655 5656 5657 5658 5660 5660 5660
5684 5682 5681 5680 5678 5676 5675 5673 5670 5669 5668 5667 5667 5666 5665 5665 5665 5664 5663 5661 5659 5655 5650 5654 5655 5656 5657 5656 5655 5655 5654 5653 5652 5652 5651 5651 5650 5651 5652 5653 5654 5655 5655
5679 5678 5676 5675 5674 5673 5671 5669 5666 5665 5663 5662 5663 5662 5661 5661 5660 5659 5658 5657 5655 5653 5648 5649 5652 5652 5650 5649 5649 5649 5649 5648 5647 5647 5646 5646 5646 5646 5646 5648 5648 5649 5650
5674 5673 5672 5671 5669 5668 5666 5664 5662 5661 5659 5658 5658 5658 5658 5658 5656 5655 5653 5652 5651 5650 5646 5643 5644 5644 5644 5643 5643 5643 5644 5643 5643 5642 5642 5641 5641 5641 5641 5641 5642 5643 5644
5669 5668 5666 5664 5663 5662 5661 5660 5658 5657 5656 5655 5655 5654 5654 5653 5651 5650 5649 5647 5646 5646 5643 5639 5637 5638 5637 5637 5636 5636 5637 5638 5638 5637 5637 5637 5636 5636 5636 5636 5637 5637 5639
5663 5661 5660 5659 5658 5657 5655 5654 5652 5651 5651 5651 5651 5651 5650 5649 5647 5646 5644 5642 5641 5638 5636 5633 5632 5631 5630 5631 5629 5628 5628 5630 5631 5632 5632 5632 5631 5631 5630 5631 5631 5632 5633
5657 5655 5654 5652 5652 5650 5649 5647 5646 5646 5645 5646 5646 5647 5647 5646 5644 5643 5641 5637 5635 5632 5629 5627 5625 5624 5623 5623 5622 5622 5621 5623 5624 5626 5625 5626 5626 5625 5625 5625 5626 5627 5628
5651 5649 5647 5646 5644 5644 5643 5641 5640 5640 5640 5640 5641 5641 5641 5640 5639 5637 5636 5634 5632 5628 5624 5622 5620 5619 5619 5619 5619 5618 5616 5615 5615 5620 5620 5620 5620 5620 5621 5621 5621 5622 5623
5644 5642 5640 5639 5637 5636 5636 5635 5634 5633 5634 5635 5635 5635 5635 5635 5633 5631 5630 5628 5626 5625 5623 5620 5617 5616 5615 5616 5614 5613 5612 5612 5612 5614 5615 5613 5615 5614 5616 5617 5617 5617 5617
5637 5635 5633 5632 5630 5628 5628 5628 5628 5627 5627 5628 5628 5629 5628 5627 5627 5625 5623 5621 5620 5619 5618 5617 5616 5615 5614 5613 5612 5610 5609 5609 5609 5610 5610 5607 5608 5608 5611 5611 5612 5612 5612
5630 5628 5626 5624 5622 5621 5621 5621 5620 5620 5620 5620 5621 5622 5621 5620 5620 5619 5616 5615 5614 5614 5614 5613 5612 5611 5610 5610 5608 5605 5603 5600 5600 5602 5603 5601 5601 5602 5604 5605 5606 5606 5605
5624 5622 5619 5617 5615 5614 5614 5613 5612 5611 5611 5612 5613 5613 5613 5613 5612 5611 5609 5608 5606 5607 5607 5606 5605 5605 5605 5604 5603 5601 5598 5595 5594 5594 5596 5595 5594 5594 5593 5597 5598 5598 5598